Regional Weather Roundup
Issued by NWS

Home | Current Version | Previous Version | Graphics & Text | Print | Product List | Glossary On
Versions: 1 2 3 4 5 6 7 8 9 10 11 12 13 14 15 16 17 18 19 20 21 22 23 24 25 26 27 28 29 30 31 32 33 34 35 36 37 38 39 40 41 42 43 44 45 46 47 48 49 50
000
ASUS43 KFSD 260402
RWRSD

WEATHER ROUNDUP FOR SOUTH DAKOTA
NATIONAL WEATHER SERVICE SIOUX FALLS SD
1100 PM CDT MON JUL 25 2016

NOTE: "FAIR" INDICATES FEW OR NO CLOUDS BELOW 12,000 FEET WITH NO
SIGNIFICANT WEATHER AND/OR OBSTRUCTIONS TO VISIBILITY.


SDZ001>005-009-010-012>017-260500-
NORTHWEST AND NORTH CENTRAL SOUTH DAKOTA

CITY           SKY/WX    TMP DP  RH WIND       PRES   REMARKS
BUFFALO          N/A     75  53  46 VRB3      29.95R
FAITH            N/A     86  42  21 S12G38    30.01R
MOBRIDGE       PTCLDY    83  56  39 SE8       29.93R
$$

SDZ012>016-024>037-041>051-057-063-072>074-260500-
SOUTHWEST AND SOUTH CENTRAL SOUTH DAKOTA

CITY           SKY/WX    TMP DP  RH WIND       PRES   REMARKS
RAPID CTY ARPT CLEAR     72  58  61 SE3       30.02R
PIERRE         CLOUDY    81  55  40 S12       29.98R
CUSTER         CLEAR     72  52  49 CALM      30.19R
ELLSWORTH AFB  PTCLDY    77  60  54 SE7       30.02R
PHILIP         CLOUDY    77  58  51 SE6       29.98R
PINE RIDGE     PTCLDY    81  61  50 S12G25    30.04R
WINNER         FAIR      78  53  41 S10       30.05R
$$

SDZ004>011-016>023-039-040-260500-
NORTHEAST SOUTH DAKOTA

CITY           SKY/WX    TMP DP  RH WIND       PRES   REMARKS
ABERDEEN       CLEAR     74  58  57 S12       29.96R
WATERTOWN      CLEAR     74  64  71 S10       30.04R
BROOKINGS      CLEAR     72  65  78 S8        30.07R
SISSETON         N/A     73  63  70 S8        29.95S
$$

SDZ017-020-022-023-036>040-048>070-260500-
SOUTHEAST SOUTH DAKOTA

CITY           SKY/WX    TMP DP  RH WIND       PRES   REMARKS
SIOUX FALLS    PTCLDY    74  63  68 S9        30.07R
HURON          CLOUDY    78  57  48 S12       30.01R
CHAMBERLAIN    CLOUDY    71  58  64 SE7       30.04R
MITCHELL       CLEAR     78  61  55 S8        30.05R
YANKTON        CLEAR     75  63  64 S6        30.06R
$$

ABBREVIATIONS USED IN REMARKS
   TC - TEMPERATURE IN CELSIUS
  WCI - WIND CHILL INDEX
   HX - HEAT INDEX
  VSB - VISIBILITY





USA.gov is the U.S. government's official web portal to all federal, state and local government web resources and services.